Newport, Oregon, United States (97365)
Lat: 44.64N, Lon: 124.05W
Wx Zone: ORZ002
Local Info
Past Weather Observations for Today

NOTE: This archive is for the closest National Weather Service station to Newport. Information may differ from the station used for current weather conditions.

Click here for Long-term Archive

Time Weather Temperature Dewpoint Humidity Pressure Winds Precip Visibility
23:15
Mostly Cloudy
Drizzle
54°F / 12°C 54°F / 12°C 100% 29.77 in
(1008 mb)
E 4.6 mph
(E 7 kph)
- 7SM
22:55
Overcast
Drizzle
54°F / 12°C 54°F / 12°C 100% N/A E 5.8 mph
(E 9 kph)
0.02 in
(0.51 mm)
10SM
22:35
Overcast
Drizzle
54°F / 12°C 54°F / 12°C 100% 29.8 in
(1009 mb)
E 6.9 mph
(E 11 kph)
0.01 in
(0.25 mm)
5SM
22:15
Overcast
Drizzle
54°F / 12°C 54°F / 12°C 100% 29.8 in
(1009 mb)
E 4.6 mph
(E 7 kph)
0.01 in
(0.25 mm)
5SM
21:55
Mostly Cloudy
Drizzle
54°F / 12°C 54°F / 12°C 100% 29.8 in
(1009 mb)
Calm 0.02 in
(0.51 mm)
10SM
21:35
Overcast
Rain
54°F / 12°C 54°F / 12°C 100% 29.8 in
(1009 mb)
E 3.5 mph
(E 6 kph)
0.02 in
(0.51 mm)
7SM
21:15
Overcast
Light Rain
54°F / 12°C 54°F / 12°C 100% 29.83 in
(1010 mb)
Calm - 7SM
20:55
Overcast
Drizzle
54°F / 12°C 54°F / 12°C 100% 29.8 in
(1009 mb)
Calm 0.02 in
(0.51 mm)
7SM
20:35
Mostly Cloudy
Drizzle
54°F / 12°C 54°F / 12°C 100% 29.8 in
(1009 mb)
Calm 0.02 in
(0.51 mm)
7SM
20:15
Mostly Cloudy
Light Rain
54°F / 12°C 54°F / 12°C 100% 29.83 in
(1010 mb)
Calm 0.01 in
(0.25 mm)
7SM
19:55
Mostly Cloudy
Drizzle
54°F / 12°C 54°F / 12°C 100% 29.83 in
(1010 mb)
Calm - 10SM
19:35
Mostly Cloudy
Drizzle
54°F / 12°C 54°F / 12°C 100% 29.83 in
(1010 mb)
Calm - 7SM
19:15
Partly Cloudy
Light Rain
54°F / 12°C 54°F / 12°C 100% 29.83 in
(1010 mb)
Calm - 10SM
18:55
Partly Cloudy
54°F / 12°C 54°F / 12°C 100% 29.83 in
(1010 mb)
Calm - 10SM
18:35
Mostly Cloudy
54°F / 12°C 54°F / 12°C 100% 29.83 in
(1010 mb)
Calm - 7SM
18:15
Overcast
55°F / 13°C 54°F / 12°C 94% 29.83 in
(1010 mb)
Calm - 7SM
17:55
Overcast
Light Rain
55°F / 13°C 54°F / 12°C 94% 29.83 in
(1010 mb)
Calm 0.02 in
(0.51 mm)
7SM
17:35
Overcast
Drizzle
54°F / 12°C 54°F / 12°C 100% 29.83 in
(1010 mb)
Calm 0.01 in
(0.25 mm)
10SM
17:15
Overcast
Light Rain
55°F / 13°C 54°F / 12°C 94% 29.83 in
(1010 mb)
Calm 0.01 in
(0.25 mm)
4SM
16:55
Overcast
Drizzle
55°F / 13°C 54°F / 12°C 94% 29.83 in
(1010 mb)
Calm 0.02 in
(0.51 mm)
5SM
16:35
Overcast
Light Rain
55°F / 13°C 54°F / 12°C 94% 29.86 in
(1011 mb)
Calm 0.01 in
(0.25 mm)
1 1/4SM
16:15
Overcast
Drizzle
55°F / 13°C 54°F / 12°C 94% 29.86 in
(1011 mb)
W 4.6 mph
(W 7 kph)
0.01 in
(0.25 mm)
1 1/4SM
15:55
Overcast
Rain
55°F / 13°C 55°F / 13°C 100% 29.86 in
(1011 mb)
Calm - 1 1/2SM
15:35
Overcast
Drizzle
55°F / 13°C 55°F / 13°C 100% 29.86 in
(1011 mb)
SW 3.5 mph
(SW 6 kph)
- 5SM
15:15
Overcast
55°F / 13°C 55°F / 13°C 100% 29.86 in
(1011 mb)
Calm - 7SM
14:55
Overcast
55°F / 13°C 55°F / 13°C 100% 29.86 in
(1011 mb)
SSW 3.5 mph
(SSW 6 kph)
0.02 in
(0.51 mm)
7SM
14:35
Overcast
Rain
55°F / 13°C 55°F / 13°C 100% 29.86 in
(1011 mb)
SSW 8.1 mph
(SSW 13 kph)
0.02 in
(0.51 mm)
4SM
14:15
Overcast
Heavy Rain
57°F / 14°C 55°F / 13°C 94% 29.86 in
(1011 mb)
SSW 8.1 mph
(SSW 13 kph)
0.01 in
(0.25 mm)
3SM
13:55
Overcast
Light Rain
59°F / 15°C 55°F / 13°C 88% 29.83 in
(1010 mb)
SSW 8.1 mph
(SSW 13 kph)
0.02 in
(0.51 mm)
2SM
13:35
Overcast
Light Rain
61°F / 16°C 59°F / 15°C 94% 29.83 in
(1010 mb)
S 19.6 mph
(S 32 kph)
- 2SM
13:15
Mostly Cloudy
61°F / 16°C 59°F / 15°C 94% 29.83 in
(1010 mb)
S 20.7 mph
(S 33 kph)
- 10SM
12:55
Mostly Cloudy
61°F / 16°C 59°F / 15°C 94% 29.83 in
(1010 mb)
S 20.7 mph
(S 33 kph)
- 10SM
12:35
Overcast
61°F / 16°C 59°F / 15°C 94% 29.86 in
(1011 mb)
S 13.8 mph
(S 22 kph)
- 10SM
12:15
Mostly Cloudy
Fog And Mist
61°F / 16°C 59°F / 15°C 94% 29.86 in
(1011 mb)
S 17.3 mph
(S 28 kph)
- 5SM
11:55
Overcast
61°F / 16°C 59°F / 15°C 94% 29.86 in
(1011 mb)
SSE 19.6 mph
(SSE 32 kph)
- 10SM
11:35
Overcast
61°F / 16°C 59°F / 15°C 94% 29.86 in
(1011 mb)
S 13.8 mph
(S 22 kph)
- 10SM
11:15
Overcast
61°F / 16°C 59°F / 15°C 94% 29.86 in
(1011 mb)
S 10.4 mph
(S 17 kph)
- 7SM
10:55
Overcast
Drizzle
61°F / 16°C 59°F / 15°C 94% 29.89 in
(1012 mb)
S 13.8 mph
(S 22 kph)
- 7SM
10:35
Overcast
Drizzle
61°F / 16°C 59°F / 15°C 94% 29.89 in
(1012 mb)
S 4.6 mph
(S 7 kph)
- 4SM
10:15
Mostly Cloudy
59°F / 15°C 59°F / 15°C 100% 29.86 in
(1011 mb)
SSE 4.6 mph
(SSE 7 kph)
- 10SM
09:55
Mostly Cloudy
59°F / 15°C 57°F / 14°C 94% 29.86 in
(1011 mb)
SE 4.6 mph
(SE 7 kph)
- 10SM
09:35
Overcast
59°F / 15°C 57°F / 14°C 94% 29.86 in
(1011 mb)
ESE 5.8 mph
(ESE 9 kph)
- 10SM
09:15
Overcast
59°F / 15°C 57°F / 14°C 94% 29.86 in
(1011 mb)
E 8.1 mph
(E 13 kph)
- 10SM
08:55
Overcast
59°F / 15°C 57°F / 14°C 94% 29.86 in
(1011 mb)
ESE 6.9 mph
(ESE 11 kph)
- 10SM
08:35
Overcast
59°F / 15°C 57°F / 14°C 94% 29.86 in
(1011 mb)
E 4.6 mph
(E 7 kph)
- 10SM
08:15
Mostly Cloudy
59°F / 15°C 55°F / 13°C 88% 29.86 in
(1011 mb)
ESE 3.5 mph
(ESE 6 kph)
- 10SM
07:55
Mostly Cloudy
59°F / 15°C 55°F / 13°C 88% 29.86 in
(1011 mb)
E 5.8 mph
(E 9 kph)
- 10SM
07:35
Partly Cloudy
57°F / 14°C 55°F / 13°C 94% 29.86 in
(1011 mb)
ESE 4.6 mph
(ESE 7 kph)
- 10SM
07:15
Partly Cloudy
57°F / 14°C 55°F / 13°C 94% 29.83 in
(1010 mb)
E 9.2 mph
(E 15 kph)
- 10SM
06:55
Mostly Cloudy
57°F / 14°C 55°F / 13°C 94% 29.86 in
(1011 mb)
E 6.9 mph
(E 11 kph)
0.01 in
(0.25 mm)
10SM
06:35
Overcast
Rain
59°F / 15°C 57°F / 14°C 94% 29.89 in
(1012 mb)
SE 5.8 mph
(SE 9 kph)
- 7SM
06:15
Overcast
Heavy Rain
59°F / 15°C 57°F / 14°C 94% 29.89 in
(1012 mb)
SE 4.6 mph
(SE 7 kph)
- 7SM
05:55
Overcast
59°F / 15°C 55°F / 13°C 88% N/A SSE 5.8 mph
(SSE 9 kph)
0.01 in
(0.25 mm)
10SM
05:35
Mostly Cloudy
Rain
59°F / 15°C 55°F / 13°C 88% 29.89 in
(1012 mb)
SE 5.8 mph
(SE 9 kph)
0.01 in
(0.25 mm)
7SM
05:15
Mostly Cloudy
Drizzle
59°F / 15°C 55°F / 13°C 88% 29.89 in
(1012 mb)
Calm - 10SM
04:55
Mostly Cloudy
Drizzle
57°F / 14°C 55°F / 13°C 94% 29.89 in
(1012 mb)
SE 6.9 mph
(SE 11 kph)
0.02 in
(0.51 mm)
10SM
04:35
Mostly Cloudy
Drizzle
57°F / 14°C 55°F / 13°C 94% 29.89 in
(1012 mb)
ESE 6.9 mph
(ESE 11 kph)
0.02 in
(0.51 mm)
10SM
04:15
Overcast
Light Rain
57°F / 14°C 55°F / 13°C 94% 29.89 in
(1012 mb)
SE 5.8 mph
(SE 9 kph)
0.01 in
(0.25 mm)
7SM
03:55
Overcast
Light Rain
57°F / 14°C 55°F / 13°C 94% 29.92 in
(1013 mb)
ESE 6.9 mph
(ESE 11 kph)
0.02 in
(0.51 mm)
7SM
03:35
Mostly Cloudy
57°F / 14°C 55°F / 13°C 94% 29.92 in
(1013 mb)
SE 5.8 mph
(SE 9 kph)
- 10SM
03:15
Partly Cloudy
57°F / 14°C 55°F / 13°C 94% 29.92 in
(1013 mb)
E 9.2 mph
(E 15 kph)
- 10SM
02:55
Mostly Cloudy
57°F / 14°C 55°F / 13°C 94% 29.92 in
(1013 mb)
E 9.2 mph
(E 15 kph)
- 10SM
02:35
Mostly Cloudy
57°F / 14°C 55°F / 13°C 94% 29.92 in
(1013 mb)
E 9.2 mph
(E 15 kph)
- 10SM
02:15
Mostly Cloudy
57°F / 14°C 55°F / 13°C 94% 29.95 in
(1014 mb)
E 8.1 mph
(E 13 kph)
- 10SM
01:55
Partly Cloudy
57°F / 14°C 54°F / 12°C 88% 29.95 in
(1014 mb)
E 8.1 mph
(E 13 kph)
- 10SM
01:35
Partly Cloudy
57°F / 14°C 55°F / 13°C 94% 29.95 in
(1014 mb)
E 9.2 mph
(E 15 kph)
- 10SM
01:15
Partly Cloudy
55°F / 13°C 54°F / 12°C 94% 29.95 in
(1014 mb)
E 10.4 mph
(E 17 kph)
- 10SM
00:55
Partly Cloudy
55°F / 13°C 54°F / 12°C 94% 29.95 in
(1014 mb)
E 10.4 mph
(E 17 kph)
- 10SM
00:35
Clear
55°F / 13°C 54°F / 12°C 94% 29.95 in
(1014 mb)
E 8.1 mph
(E 13 kph)
- 10SM
00:15
Clear
55°F / 13°C 54°F / 12°C 94% 29.98 in
(1015 mb)
E 6.9 mph
(E 11 kph)
- 10SM
Time Weather Temperature Dewpoint Humidity Pressure Winds Precip Visibility


Weather for websites

WeatherForYou.com, LLC is not responsible for any damages or problems caused by this service. Current weather conditions are obtained from the closest station including government and personal stations which may have varying degrees of accuracy. Weather forecasts are derived from the NOAA NDFD. Like all things, this site belongs to Jesus Christ... He just trusts me to maintain it. If you have any questions or comments email webmaster@weatherforyou.com

Copyright © 2014, WeatherForYou.com LLC. All rights reserved.